Torna al catalogo

ARIANE 3 DEB

AttivoGTO
NORAD 20127·DEBRIS·🇫🇷 France

Lanciato Jul 21, 1988 da Guiana Space Centre

Loading…

TLE

ObsoletoSource: Space-Track

Epoca: Sep 11, 2026, 18:36 UTC

1 20127U 88063E   26254.77551807  .00000092  00000-0  69928-3 0  9994
2 20127   7.3407 213.8641 7149850 113.3057 333.0373  2.35211194320942

Traccia ARIANE 3 DEB in tempo reale con AllMySat

Download on the App Store